Lubbock, TX

8:17 AM CDT on March 26, 2017 (GMT -0500)
Lubbock International

Weather History for KLBB - December, 2013

Change the Weather History Date:

Monday, December 9, 2013

  Actual Average Record
Temperature  
Mean Temperature 23 °F 41 °F  
Max Temperature 30 °F 55 °F 80 °F (1939)
Min Temperature 15 °F 28 °F 5 °F (1978)
Degree Days  
Heating Degree Days 42 24  
Month to date heating degree days 247 204  
Since 1 July heating degree days 900 846  
Cooling Degree Days 0 0  
Month to date cooling degree days 0 0  
Year to date cooling degree days 2123 1804  
Moisture  
Dew Point 18 °F    
Average Humidity 84    
Maximum Humidity 100    
Minimum Humidity 68    
Precipitation  
Precipitation T in 0.02 in 0.65 in (1999)
Month to date precipitation 0.07 0.22  
Year to date precipitation 12.08 18.58  
Snow  
Snow 0.00 in 0.10 in 7.00 in (1999)
Month to date snowfall 0.2 0.5  
Since 1 July snowfall 2.4 1.4  
Snow Depth 0.00 in    
Sea Level Pressure  
Sea Level Pressure 30.21 in    
Wind  
Wind Speed 7 mph (ENE)    
Max Wind Speed 17 mph    
Max Gust Speed 22 mph    
Visibility 6 miles    
Events Fog , Snow    
T = Trace of Precipitation, MM = Missing Value Source: NWS Daily Summary

Daily Weather History Graph

Daily Weather History Graph

Search for Another Location

Airport or City:

Trip Planner

Search our weather history database for the weather conditions in past years. The results will help you decide how hot, cold, wet, or windy it might be!

Date:

Astronomy

Dec. 09, 2013 Rise Set
Actual Time 7:40 AM CST 5:39 PM CST
Civil Twilight 7:12 AM CST 6:06 PM CST
Nautical Twilight 6:41 AM CST 6:37 PM CST
Astronomical Twilight 6:11 AM CST 7:07 PM CST
Moon 12:51 PM CST (12/9) 12:15 AM CST (12/9)
Length of Visible Light 10h 53m
Length of Day
9h 58m
Waxing Crescent, 51% of the Moon is Illuminated
Dec 9
Waxing Crescent
Dec 17
Full
Dec 25
Last Quarter
Jan 1
New
Jan 7
First Quarter

Hourly Weather History & Observations

Time (CST) Temp. Windchill Dew Point Humidity Pressure Visibility Wind Dir Wind Speed Gust Speed Precip Events Conditions
12:53 AM 28.0 °F 18.1 °F 21.0 °F 75% 30.02 in 10.0 mi NE 11.5 mph - N/A   Partly Cloudy
1:53 AM 25.0 °F 16.3 °F 19.0 °F 78% 30.04 in 10.0 mi ENE 8.1 mph - N/A   Partly Cloudy
2:53 AM 23.0 °F 11.1 °F 19.0 °F 85% 30.05 in 10.0 mi NE 12.7 mph - N/A   Partly Cloudy
3:10 AM 23.0 °F 11.7 °F 19.4 °F 86% 30.06 in 9.0 mi NE 11.5 mph - N/A   Mostly Cloudy
3:18 AM 23.0 °F 10.6 °F 19.4 °F 86% 30.06 in 9.0 mi NE 13.8 mph 19.6 mph N/A   Overcast
3:53 AM 23.0 °F 10.1 °F 21.0 °F 92% 30.05 in 6.0 mi NE 15.0 mph - N/A   Overcast
4:53 AM 23.0 °F 10.6 °F 21.0 °F 92% 30.07 in 6.0 mi ENE 13.8 mph 20.7 mph N/A   Overcast
5:53 AM 21.9 °F 9.2 °F 21.0 °F 96% 30.11 in 3.0 mi ENE 13.8 mph - N/A   Overcast
6:53 AM 21.9 °F 9.8 °F 19.9 °F 92% 30.13 in 3.0 mi ENE 12.7 mph - N/A   Overcast
7:40 AM 21.2 °F 8.9 °F 19.4 °F 93% 30.13 in 1.8 mi East 12.7 mph 19.6 mph N/A   Overcast
7:53 AM 21.0 °F 9.3 °F 19.9 °F 96% 30.17 in 0.8 mi ENE 11.5 mph - N/A   Overcast
8:53 AM 21.0 °F 8.6 °F 19.9 °F 96% 30.19 in 0.5 mi NE 12.7 mph - N/A Fog Light Freezing Fog
9:53 AM 21.0 °F 8.6 °F 19.9 °F 96% 30.21 in 0.8 mi ENE 12.7 mph - 0.00 in Snow Light Snow
10:13 AM 21.2 °F 9.5 °F 19.4 °F 93% 30.17 in 1.0 mi NE 11.5 mph - 0.00 in Snow Light Snow
10:53 AM 19.9 °F 7.9 °F 19.0 °F 96% 30.24 in 1.0 mi NE 11.5 mph - 0.00 in Snow Light Snow
11:18 AM 21.2 °F 10.9 °F 19.4 °F 93% 30.19 in 2.0 mi NE 9.2 mph - 0.00 in Snow Light Snow
11:35 AM 21.2 °F 10.1 °F 17.6 °F 86% 30.19 in 3.0 mi NE 10.4 mph - 0.00 in Snow Light Snow
11:53 AM 21.0 °F 10.6 °F 18.0 °F 88% 30.25 in 3.0 mi NE 9.2 mph - 0.00 in Snow Light Snow
12:46 PM 21.2 °F 10.9 °F 17.6 °F 86% 30.17 in 8.0 mi NNE 9.2 mph - 0.00 in   Overcast
12:53 PM 21.9 °F 14.5 °F 17.1 °F 82% 30.22 in 8.0 mi NNE 5.8 mph - 0.00 in   Overcast
1:53 PM 24.1 °F 17.0 °F 17.1 °F 75% 30.21 in 10.0 mi NNE 5.8 mph - N/A   Overcast
2:53 PM 25.0 °F - 18.0 °F 75% 30.21 in 10.0 mi Calm Calm - N/A   Overcast
3:53 PM 26.1 °F - 18.0 °F 71% 30.22 in 10.0 mi Calm Calm - N/A   Overcast
4:53 PM 27.0 °F - 18.0 °F 69% 30.24 in 10.0 mi Calm Calm - N/A   Mostly Cloudy
5:00 PM 26.6 °F - 17.6 °F 69% 30.18 in 10.0 mi Calm Calm - N/A   Scattered Clouds
5:53 PM 25.0 °F - 17.1 °F 72% 30.27 in 10.0 mi Calm Calm - N/A   Partly Cloudy
6:53 PM 21.0 °F 16.2 °F 15.1 °F 78% 30.31 in 10.0 mi East 3.5 mph - N/A   Clear
7:53 PM 17.1 °F - 12.9 °F 84% 30.36 in 9.0 mi Calm Calm - N/A   Clear
8:53 PM 18.0 °F - 14.0 °F 84% 30.38 in 8.0 mi Calm Calm - N/A   Clear
9:53 PM 16.0 °F 10.4 °F 12.9 °F 88% 30.40 in 7.0 mi South 3.5 mph - N/A   Clear
10:53 PM 17.1 °F 11.7 °F 14.0 °F 88% 30.42 in 7.0 mi South 3.5 mph - N/A   Clear
11:53 PM 17.1 °F 10.0 °F 14.0 °F 88% 30.43 in 6.0 mi SSW 4.6 mph - N/A   Clear